Location: Asheville, NC
(35.6000°N, 82.5500°W)
Time: 09:30:53
(UTC-04:00)

Vanguard 2 - Pass Details

Date: 08 March 2018
Orbit: 554 x 2939 km, 32.9° (Epoch: 24 June)

Event Time Altitude Azimuth Distance (km) Brightness Sun altitude
Rises 18:11:06 0° 283° (WNW) 6,624 13.9 3.3°
Reaches altitude 10° 18:16:04 10° 279° (W) 5,400 13.6 2.3°
Maximum altitude 18:30:07 47° 213° (SSW) 2,492 10.5 -0.5°
Drops below altitude 10° 18:39:09 10° 143° (SE) 3,530 10.6 -2.3°
Sets 18:41:43 0° 136° (SE) 4,229 10.9 -2.8°
